Location: Boleita
(10.4833°N, 66.8167°W)
Time: 03:46:12
(UTC+00:00)

Aureole 1 - Pass Details

Date: 08 November 2025
Orbit: 381 x 1422 km, 74.0° (Epoch: 09 December)

Event Time Altitude Azimuth Distance (km) Brightness Sun altitude
Rises 09:17:06 0° 203° (SSW) 2,269 7.9 -15.8°
Reaches altitude 10° 09:19:08 10° 210° (SSW) 1,394 6.7 -15.3°
Maximum altitude 09:21:57 43° 284° (WNW) 550 4.3 -14.6°
Drops below altitude 10° 09:24:57 10° 358° (N) 1,472 6.8 -13.9°
Sets 09:27:09 0° 5° (N) 2,418 8.0 -13.4°
